EAGLET 1
1 43790U 18099AJ 22006.72881196 .00000676 00000-0 64870-4 0 9990
2 43790 97.6444 78.5122 0014829 94.6495 265.6420 14.96208613168601
ESEO
1 43792U 18099AL 22006.75069673 .00000447 00000-0 44973-4 0 9991
2 43792 97.6410 77.9465 0014908 91.2729 269.0200 14.95882390168658
CSIM
1 43793U 18099AM 22006.50422092 .00000536 00000-0 51356-4 0 9995
2 43793 97.6461 78.5107 0014087 87.7048 272.5787 14.97124268168640
Astrocast 0.1
1 43798U 18099AS 22006.77665629 .00000636 00000-0 60870-4 0 9996
2 43798 97.6456 78.8554 0013478 74.7388 285.5323 14.96562238168927
JO-97
1 43803U 18099AX 22006.73324837 .00001116 00000-0 10374-3 0 9999
2 43803 97.6417 77.7639 0016531 90.9706 269.3410 14.96218748168886
Suomi 100
1 43804U 18099AY 22006.74366969 .00001153 00000-0 10711-3 0 9999
2 43804 97.6416 77.7213 0016717 90.6970 269.6166 14.96174278168891
Al Farabi 2
1 43805U 18099AZ 22006.57594837 .00000473 00000-0 46602-4 0 9991
2 43805 97.6433 77.9002 0016485 90.1917 270.1203 14.96488544168889
CHOMPTT
1 43855U 18104G 22006.48803914 .00002849 00000-0 11194-3 0 9998
2 43855 85.0374 158.8775 0018379 113.6864 246.6311 15.25045906170022
ISAT
1 43879U 18111D 22006.75597493 .00001488 00000-0 13397-3 0 9999
2 43879 97.6750 275.3079 0014124 137.2134 223.0201 14.97032562163462
UWE-4
1 43880U 18111E 22006.71303744 .00000268 00000-0 28139-4 0 9997
2 43880 97.6790 275.8657 0012853 136.6625 223.5610 14.97249768163490
Sparrow
1 43881U 18111F 22006.54144695 .00000918 00000-0 84009-4 0 9997
2 43881 97.6789 275.8732 0013217 136.7158 223.5105 14.97319703165476
Lume 1
1 43908U 18111AJ 22006.44256684 .00002740 00000-0 10420-3 0 9998
2 43908 97.2118 259.4972 0018085 293.7435 66.1908 15.27463362168641
FO-98
1 43933U 19003B 22006.54204202 .00023148 00000-0 64081-3 0 9994
2 43933 97.1605 46.1759 0013253 34.2936 325.9162 15.36900974165177
FO-99
1 43937U 19003F 22006.55370897 .00002803 00000-0 10714-3 0 9992
2 43937 97.1523 46.4621 0022731 16.0545 344.1410 15.27165940165249
MYSat 1
1 44045U 18092F 22006.65084398 .00008390 00000-0 19168-3 0 9998
2 44045 51.6358 152.3227 0009491 224.3122 135.7105 15.43691645162801
AstroCast 0.2
1 44083U 19018F 22006.70726512 .00003070 00000-0 12984-3 0 9995
2 44083 97.3472 68.8179 0011706 346.1273 13.9641 15.23905067153835
AISTechSat 3
1 44103U 19018AB 22006.82275480 .00003198 00000-0 13045-3 0 9994
2 44103 97.3345 69.3757 0012558 354.9543 116.5762 15.25085958153999
AISat 1
1 44104U 19018AC 22006.21397044 .00001965 00000-0 61177-4 0 9999
2 44104 97.4099 88.9554 0055011 354.8039 5.2625 15.33093094154722
Prox-1
1 44339U 19036A 22006.54857398 .00001337 00000-0 26133-3 0 9993
2 44339 23.9997 134.6732 0010608 245.6977 114.2406 14.54056131134753
Oculus-ASR
1 44348U 19036K 22006.78390652 .00013618 00000-0 16439-3 0 9997
2 44348 28.5090 213.3891 0298099 320.0853 37.8171 15.20531524139798
Armadillo
1 44352U 19036P 22006.78936416 .00026260 -57876-5 25459-3 0 9994
2 44352 28.5258 171.7586 0247952 25.4151 335.8417 15.33829331140163
NO-104
1 44354U 19036R 22005.79921901 .00016102 00000-0 18883-3 0 9997
2 44354 28.5260 209.9699 0291958 323.0647 35.0168 15.22429649139749
NO-103
1 44355U 19036S 22006.56646509 .00067563 -50457-5 49500-3 0 9996
2 44355 28.5230 115.4446 0186837 116.5430 245.4454 15.51581298140740
Move-IIb
1 44398U 19038N 22006.57789995 .00004215 00000-0 22758-3 0 9997
2 44398 97.6093 335.1460 0022660 332.7825 27.2206 15.15073677138500
SONATE
1 44400U 19038Q 22006.57668506 .00001666 00000-0 97152-4 0 9993
2 44400 97.6179 334.7848 0023859 334.5270 25.4778 15.13164061138442
BeeSat 9
1 44412U 19038AC 22006.41395796 .00002163 00000-0 12128-3 0 9999
2 44412 97.6164 335.0888 0021011 339.2209 20.8166 15.14300136138153
JAISAT-1
1 44419U 19038F 22006.45091725 .00002649 00000-0 14579-3 0 9996
2 44419 97.6168 335.8346 0019830 336.8997 23.1342 15.14784527138516
LightSail-2
1 44420U 19036AC 22006.35475829 .00012093 00000-0 22224-2 0 9995
2 44420 24.0038 100.1796 0015240 320.1947 39.7428 14.63821682133208
Taurus 1
1 44530U 19059C 22006.85689777 .00001104 00000-0 31967-3 0 9992
2 44530 98.5491 103.9475 0012995 243.3304 116.6542 14.46410559122489
Duchifat 3
1 44854U 19089C 22006.26594363 .00001549 00000-0 12864-3 0 9993
2 44854 36.9646 340.9131 0008302 333.8560 26.1748 14.99949600113568
OPS-SAT
1 44878U 19092F 22006.76129668 .00002370 00000-0 12150-3 0 9991
2 44878 97.4744 192.4621 0013301 177.3465 182.7842 15.17475228113654
TO-108
1 44881U 19093C 22006.76512418 .00000219 00000-0 34671-4 0 9998
2 44881 97.9094 88.2123 0015089 357.9125 2.2015 14.81537434110837
FloripaSat 1
1 44885U 19093G 22006.79570844 .00000741 00000-0 98744-4 0 9993
2 44885 97.9119 89.1637 0014555 5.2163 354.9189 14.82550746110898
RS-44
1 44909U 19096E 22006.43190086 .00000019 00000-0 34216-4 0 9992
2 44909 82.5224 337.9364 0217103 338.8583 20.3645 12.79711971 94781
Phoenix
1 45258U 98067RB 22006.42100624 .00019545 00000-0 20516-3 0 9994
2 45258 51.6374 28.7172 0004294 314.5357 45.5287 15.64362126106886
QARMAN
1 45263U 98067RG 22006.47761961 .00151940 00000-0 54990-3 0 9991
2 45263 51.6313 7.1958 0005008 37.7916 322.3440 15.87609386107231
Quetzal 1
1 45598U 98067RL 22006.40521122 .00073860 00000-0 41024-3 0 9996
2 45598 51.6367 17.3337 0004721 48.0281 312.1121 15.78820999 96365
BY70-2
1 45857U 20042B 22006.83225960 .00002681 00000-0 37991-3 0 9991
2 45857 97.9703 85.4082 0009434 275.9475 84.0630 14.77838712 81572
UPMSat 2
1 46276U 20061E 22006.16129699 .00001184 00000-0 63336-4 0 9996
2 46276 97.4127 80.6823 0002452 56.0096 304.1371 15.16967134 74264
AmicalSat
1 46287U 20061R 22006.25199626 .00001402 00000-0 87428-4 0 9996
2 46287 97.4677 79.9090 0004123 108.9341 251.2337 15.11115991 73961
SALSAT
1 46495U 20068K 22006.56963551 .00001481 00000-0 11204-3 0 9999
2 46495 97.7118 308.0879 0018234 104.7216 255.6030 15.03771113 69855
BY70-3
1 46839U 20079N 22006.76648688 .00007120 00000-0 20527-3 0 9990
2 46839 97.2208 81.6184 0006254 183.1848 326.8794 15.35999449 65387
SPOC
1 46921U 98067RR 22006.31145446 .00017718 00000-0 20703-3 0 9999
2 46921 51.6395 40.0820 0001902 76.7746 283.3459 15.61681374 66475
Bobcat-1
1 46922U 98067RS 22006.32716432 .00037243 00000-0 32451-3 0 9998
2 46922 51.6409 33.4702 0002352 58.8455 301.2772 15.68626826 66527
Neutron-1
1 46923U 98067RT 22006.66364706 .00017435 00000-0 20449-3 0 9994
2 46923 51.6402 38.6866 0001638 84.8254 275.2927 15.61597388 66548
CAPE 3
1 47309U 21002A 22006.67206901 .00002069 00000-0 10081-3 0 9999
2 47309 60.6844 251.6302 0033196 157.0287 203.2293 15.21948037 53801
AO-109
1 47311U 21002C 22006.20688770 .00002045 00000-0 97749-4 0 9990
2 47311 60.6859 251.6724 0030290 150.8795 209.3989 15.22743924 53735
MiTEE 1
1 47314U 21002F 22006.36225215 .00003168 00000-0 13504-3 0 9994
2 47314 60.6830 247.7939 0032279 143.5469 216.7826 15.25109126 53833
ExoCube 2
1 47319U 21002L 22006.22773195 .00001874 00000-0 91582-4 0 9994
2 47319 60.6832 252.2981 0030493 154.8091 205.4491 15.22348823 53693
UVSQ-SAT
1 47438U 21006AB 22006.16086660 .00001568 00000-0 90099-4 0 9999
2 47438 97.4621 68.5346 0013973 115.1231 245.1452 15.13877201 52719
YUSAT 1
1 47439U 21006AC 22006.68644450 .00001478 00000-0 84865-4 0 9998
2 47439 97.4625 69.0706 0013812 113.7204 246.5478 15.13990897 52794
SOMP 2b
1 47445U 21006AJ 22006.39715709 .00001439 00000-0 83479-4 0 9996
2 47445 97.4596 68.5513 0013558 117.8111 242.4496 15.13671142 52746
